User: anonymous   Login
Location: Prague
(50.0830°N, 14.4670°E)
Time: 16:56:00
(UTC+01:00)
Language:

BEESAT 2 - Orbit

View from above orbital plane
View from above orbital plane
View from above satellite
View from above satellite

Ground track
Ground track

The orbit data is extracted from the following two-line orbital elements,

1 39136U 13015G   22336.24422608  .00014553  00000-0  55130-3 0  9991
2 39136  64.8730 279.0369 0025030 290.7760  69.0689 15.26831336531497
Epoch (UTC): 02 December 2022 05:51:41
Eccentricity: 0.0025030
inclination: 64.8730°
perigee height: 468 km
apogee height: 502 km
right ascension of ascending node: 279.0369°
argument of perigee: 290.7760°
revolutions per day: 15.26831336
mean anomaly at epoch: 69.0689°
orbit number at epoch: 53149

The dashed part of the orbit path shows where the satellite is in the earth's shadow,  

DLR